DateTimeUTC,F1_A11,F1_S11,BsB_S11,BsG_S11,BsR_S11,BbsB_S11,BbsG_S11,BbsR_S11,BaB_A11,BaG_A11,BaR_A11,Tu_S11,T_S11,Uu_S11,U_S11,P_S11,T1_A11
2021-07-19T00:00:00Z,00000200,20000000,,,,,,,-000.28,-000.09,-000.04,18.7,25.2,14.6,09.8,0674.3,31.0
2021-07-19T00:01:00Z,00000200,20000000,,,,,,,0000.15,0000.09,-000.05,18.7,25.2,14.6,09.8,0674.3,31.1
2021-07-19T00:02:00Z,00000200,20000000,,,,,,,-000.27,-000.29,-000.05,18.7,25.2,14.6,09.8,0674.3,31.1
2021-07-19T00:03:00Z,00000200,60000000,,,,,,,0003.28,0002.84,0001.72,18.7,25.2,14.6,09.8,0674.3,31.0
2021-07-19T00:04:00Z,00000200,40000000,0021.49,0014.80,0008.45,0002.27,0001.60,0001.20,0004.57,0004.05,0003.44,18.8,25.0,14.4,09.9,0675.2,31.0
2021-07-19T00:05:00Z,00000200,00000000,0021.11,0014.98,0008.55,0002.62,0001.88,0001.44,0003.95,0003.52,0002.80,18.8,25.0,14.5,09.9,0675.3,31.0
2021-07-19T00:06:00Z,00000200,00000000,0021.77,0015.41,0009.17,0002.00,0002.09,0001.14,0004.46,0004.20,0002.74,18.8,25.0,14.5,10.0,0675.3,31.0
2021-07-19T00:07:00Z,00000200,00000000,0021.67,0014.85,0008.50,0002.19,0001.73,0001.68,0004.18,0003.82,0002.93,18.8,25.0,14.6,10.0,0675.3,31.0
2021-07-19T00:08:00Z,00000200,00000000,0020.96,0014.60,0009.01,0002.43,0002.37,0001.79,0004.20,0003.87,0003.09,18.8,25.0,14.6,10.0,0675.3,31.0
2021-07-19T00:09:00Z,00000200,00000000,0021.88,0015.59,0009.84,0002.80,0001.64,0001.38,0003.83,0003.61,0002.62,18.8,25.0,14.7,10.1,0675.2,31.0
2021-07-19T00:10:00Z,00000200,00000000,0021.16,0015.07,0008.88,0002.31,0001.87,0001.19,0004.03,0003.58,0002.54,18.8,25.0,14.7,10.1,0675.2,31.1
2021-07-19T00:11:00Z,00000200,00000000,0020.52,0014.47,0008.61,0002.13,0001.78,0001.25,0004.28,0003.71,0002.96,18.8,25.0,14.7,10.1,0675.2,31.1
2021-07-19T00:12:00Z,00000200,00000000,0020.87,0014.78,0009.06,0002.65,0001.96,0001.55,0004.16,0003.71,0002.76,18.8,24.9,14.7,10.1,0675.2,31.0
2021-07-19T00:13:00Z,00000200,00000000,0021.35,0014.99,0009.28,0002.80,0001.80,0001.41,0003.86,0003.56,0002.77,18.8,25.0,14.7,10.1,0675.3,31.0
2021-07-19T00:14:00Z,00000200,00000000,0020.48,0014.90,0009.21,0002.45,0001.75,0001.64,0003.95,0003.78,0003.22,18.8,25.0,14.7,10.1,0675.3,31.1
2021-07-19T00:15:00Z,00000200,00000000,0022.12,0015.23,0009.67,0002.17,0001.93,0001.51,0004.21,0003.78,0002.50,18.8,24.9,14.7,10.1,0675.3,31.1
2021-07-19T00:16:00Z,00000200,00000000,0021.23,0015.70,0009.57,0002.10,0001.68,0001.74,0004.02,0003.45,0002.74,18.8,24.9,14.7,10.1,0675.3,31.0
2021-07-19T00:17:00Z,00000200,00000000,0021.07,0015.52,0009.98,0002.46,0001.73,0001.50,0004.23,0003.88,0003.30,18.8,24.9,14.7,10.1,0675.3,31.0
2021-07-19T00:18:00Z,00000200,00000000,0021.16,0015.32,0009.79,0002.33,0001.85,0001.42,0003.95,0003.77,0002.41,18.8,24.9,14.8,10.1,0675.3,31.1
2021-07-19T00:19:00Z,00000200,00000000,0021.74,0016.44,0010.38,0002.34,0001.88,0001.51,0004.29,0004.16,0003.16,18.8,24.9,14.8,10.1,0675.3,31.0
2021-07-19T00:20:00Z,00000200,00000000,0023.26,0016.53,0011.01,0002.75,0002.20,0001.75,0004.43,0003.72,0002.91,18.8,24.9,14.7,10.1,0675.3,31.0
2021-07-19T00:21:00Z,00000200,00000000,0023.06,0016.04,0010.14,0002.76,0001.80,0001.49,0004.13,0004.04,0003.12,18.8,24.9,14.8,10.2,0675.3,31.0
2021-07-19T00:22:00Z,00000200,00000000,0021.78,0016.50,0010.22,0002.15,0002.19,0002.03,0004.54,0003.73,0003.08,18.8,24.9,14.8,10.1,0675.3,31.1
2021-07-19T00:23:00Z,00000200,00000000,0021.47,0015.40,0009.93,0002.10,0001.76,0001.60,0003.64,0003.72,0002.84,18.8,24.9,14.7,10.1,0675.3,31.0
2021-07-19T00:24:00Z,00000200,00000000,0020.75,0015.55,0009.79,0002.51,0002.20,0001.16,0004.16,0003.71,0002.79,18.8,24.9,14.8,10.2,0675.3,31.0
2021-07-19T00:25:00Z,00000200,00000000,0022.70,0015.97,0010.10,0003.46,0002.13,0001.92,0004.12,0003.97,0002.89,18.8,24.9,14.8,10.2,0675.3,31.0
2021-07-19T00:26:00Z,00000200,00000000,0022.60,0016.39,0010.09,0001.81,0002.09,0001.61,0004.40,0003.67,0002.67,18.8,24.9,14.8,10.1,0675.3,31.0
2021-07-19T00:27:00Z,00000200,00000000,0023.06,0016.35,0010.62,0002.49,0001.84,0001.50,0004.28,0004.06,0002.98,18.8,24.9,14.7,10.1,0675.3,31.1
2021-07-19T00:28:00Z,00000200,00000000,0023.05,0017.24,0010.38,0002.64,0001.69,0001.29,0004.33,0003.82,0003.38,18.8,24.9,14.8,10.2,0675.3,31.0
2021-07-19T00:29:00Z,00000200,00000000,0023.94,0017.36,0011.01,0002.72,0002.18,0001.44,0004.45,0004.01,0002.74,18.8,24.9,14.7,10.1,0675.3,31.0
2021-07-19T00:30:00Z,00000200,00000000,0024.06,0017.13,0011.20,0002.44,0001.90,0001.65,0004.23,0004.24,0003.33,18.8,24.9,14.7,10.1,0675.3,31.0
2021-07-19T00:31:00Z,00000200,00000000,0023.91,0017.59,0011.17,0002.17,0002.30,0001.52,0004.52,0003.83,0003.12,18.8,24.9,14.7,10.1,0675.3,31.0
2021-07-19T00:32:00Z,00000200,00000000,0024.14,0017.82,0011.05,0002.81,0002.15,0001.63,0004.50,0004.25,0003.22,18.8,24.9,14.6,10.1,0675.3,31.1
2021-07-19T00:33:00Z,00000200,00000000,0023.79,0017.93,0011.85,0002.71,0002.31,0001.95,0004.97,0004.56,0003.12,18.8,24.8,14.6,10.1,0675.3,31.0
2021-07-19T00:34:00Z,00000200,00000000,0024.67,0018.02,0011.88,0002.75,0002.32,0001.99,0005.03,0004.34,0003.50,18.8,24.9,14.6,10.0,0675.3,31.0
2021-07-19T00:35:00Z,00000200,00000000,0025.50,0018.64,0012.21,0002.82,0002.33,0001.79,0005.03,0004.81,0003.77,18.8,24.9,14.5,10.0,0675.3,31.0
2021-07-19T00:36:00Z,00000200,00000000,0025.29,0018.81,0012.27,0003.01,0002.56,0001.24,0004.72,0004.21,0003.52,18.9,24.9,14.5,10.0,0675.3,31.1
2021-07-19T00:37:00Z,00000200,00000000,0025.33,0019.17,0012.44,0002.70,0002.36,0001.76,0005.18,0004.78,0003.38,18.9,25.0,14.6,10.1,0675.3,31.1
2021-07-19T00:38:00Z,00000200,00000000,0025.56,0019.06,0012.24,0003.23,0002.15,0001.61,0004.81,0004.62,0003.84,18.9,25.0,14.5,10.0,0675.3,31.1
2021-07-19T00:39:00Z,00000200,00000000,0026.75,0019.55,0011.93,0003.41,0002.19,0001.80,0005.24,0004.85,0003.30,18.9,25.0,14.5,10.0,0675.3,31.1
2021-07-19T00:40:00Z,00000200,00000000,0027.05,0019.35,0012.72,0003.14,0002.02,0001.93,0005.15,0004.68,0003.55,18.9,25.0,14.5,10.0,0675.3,31.1
2021-07-19T00:41:00Z,00000200,00000000,0026.88,0019.57,0012.43,0002.64,0002.42,0002.09,0005.02,0004.34,0003.72,18.9,25.0,14.4,09.9,0675.3,31.1
2021-07-19T00:42:00Z,00000200,00000000,0026.21,0019.32,0012.71,0002.88,0002.50,0001.82,0005.52,0004.89,0003.80,18.9,25.0,14.4,10.0,0675.3,31.1
2021-07-19T00:43:00Z,00000200,00000000,0026.38,0019.55,0012.70,0003.37,0002.12,0001.71,0005.14,0004.77,0003.75,18.9,25.0,14.5,10.0,0675.4,31.1
2021-07-19T00:44:00Z,00000200,00000000,0026.95,0020.15,0012.98,0002.91,0002.25,0002.34,0005.30,0005.11,0003.65,18.9,25.0,14.4,10.0,0675.4,31.1
2021-07-19T00:45:00Z,00000200,00000000,0026.76,0020.00,0012.85,0003.26,0002.60,0002.04,0005.20,0004.56,0003.89,18.9,25.0,14.4,10.0,0675.4,31.1
2021-07-19T00:46:00Z,00000200,00000000,0026.59,0020.03,0012.93,0002.35,0002.24,0002.12,0005.69,0005.11,0003.56,18.9,24.9,14.4,09.9,0675.4,31.1
2021-07-19T00:47:00Z,00000200,00000000,0027.31,0019.97,0013.18,0002.35,0002.27,0002.02,0005.15,0005.09,0003.70,18.9,25.0,14.4,09.9,0675.4,31.1
2021-07-19T00:48:00Z,00000200,00000000,0027.23,0019.97,0012.96,0002.63,0002.43,0002.02,0005.56,0005.02,0004.10,18.9,25.0,14.3,09.9,0675.4,31.1
2021-07-19T00:49:00Z,00000200,00000000,0027.34,0020.45,0013.34,0002.80,0002.16,0001.78,0005.36,0004.80,0003.67,18.9,25.0,14.4,09.9,0675.4,31.0
2021-07-19T00:50:00Z,00000200,00000000,0027.42,0020.08,0013.73,0002.82,0002.35,0001.74,0005.66,0005.00,0003.97,18.9,25.0,14.4,09.9,0675.4,31.0
2021-07-19T00:51:00Z,00000200,00000000,0027.60,0020.82,0013.80,0003.92,0002.41,0001.89,0004.96,0005.05,0003.77,18.9,24.9,14.4,09.9,0675.4,31.1
2021-07-19T00:52:00Z,00000200,00000000,0027.67,0020.39,0013.49,0003.64,0002.55,0002.07,0006.08,0004.79,0003.84,18.9,25.0,14.3,09.9,0675.4,31.1
2021-07-19T00:53:00Z,00000200,00000000,0026.98,0020.99,0013.42,0002.97,0002.55,0001.68,0005.20,0005.23,0003.82,18.9,25.0,14.5,10.0,0675.4,31.0
2021-07-19T00:54:00Z,00000200,00000000,0027.43,0020.48,0013.52,0002.97,0002.69,0001.66,0005.65,0005.04,0004.13,18.9,25.0,14.4,09.9,0675.4,31.0
2021-07-19T00:55:00Z,00000200,00000000,0027.23,0020.05,0012.89,0003.41,0002.40,0002.09,0005.29,0005.02,0003.76,18.9,25.0,14.4,09.9,0675.4,31.1
2021-07-19T00:56:00Z,00000200,00000000,0026.82,0019.75,0012.79,0003.01,0002.62,0001.63,0005.52,0004.71,0003.61,18.8,24.9,14.5,10.0,0675.4,31.0
2021-07-19T00:57:00Z,00000200,40000000,,,,,,,0001.51,0001.42,0001.28,18.9,25.0,14.7,10.1,0675.5,31.1
2021-07-19T00:58:00Z,00000200,60000000,,,,,,,0000.02,0000.11,-000.24,18.7,25.1,14.5,09.8,0674.4,31.0
2021-07-19T00:59:00Z,00000200,20000000,,,,,,,-000.42,-000.58,-000.00,18.7,25.2,14.6,09.8,0674.4,31.0
